Time,TemperatureF,DewpointF,PressureIn,WindDirection,WindDirectionDegrees,WindSpeedMPH,WindSpeedGustMPH,Humidity,HourlyPrecipIn,Conditions,Clouds,dailyrainin,SoftwareType,DateUTC
2013-04-26 00:03:00,-999.0,-99.9,30.18,West,275,9.0,9.0,-999,-99.99,,,-99.99,,2013-04-26 08:03:00,
2013-04-26 00:11:00,28.0,-99.9,30.17,West,275,9.0,10.0,-999,-99.99,,,-99.99,,2013-04-26 08:11:00,
2013-04-26 00:22:00,-999.0,-99.9,30.17,West,272,10.0,10.0,-999,-99.99,,,-99.99,,2013-04-26 08:22:00,
2013-04-26 00:32:00,-999.0,-99.9,30.17,WNW,286,8.0,9.0,-999,-99.99,,,-99.99,,2013-04-26 08:32:00,
2013-04-26 00:42:00,29.0,-99.9,30.17,West,267,10.0,10.0,-999,-99.99,,,-99.99,,2013-04-26 08:42:00,
2013-04-26 00:52:00,-999.0,-99.9,30.16,West,272,10.0,10.0,-999,-99.99,,,-99.99,,2013-04-26 08:52:00,
2013-04-26 01:02:00,-999.0,-99.9,30.16,West,265,8.0,9.0,-999,-99.99,,,-99.99,,2013-04-26 09:02:00,
2013-04-26 01:12:00,29.0,-99.9,30.16,WNW,282,9.0,9.0,-999,-99.99,,,-99.99,,2013-04-26 09:12:00,
2013-04-26 01:22:00,-999.0,-99.9,30.16,West,281,11.0,12.0,-999,-99.99,,,-99.99,,2013-04-26 09:22:00,
2013-04-26 01:33:00,-999.0,-99.9,30.15,WNW,284,7.0,10.0,-999,-99.99,,,-99.99,,2013-04-26 09:33:00,
2013-04-26 01:43:00,30.0,-99.9,30.15,WNW,289,11.0,12.0,-999,-99.99,,,-99.99,,2013-04-26 09:43:00,
2013-04-26 01:53:00,-999.0,-99.9,30.15,West,277,10.0,12.0,-999,-99.99,,,-99.99,,2013-04-26 09:53:00,
2013-04-26 02:03:00,-999.0,-99.9,30.14,West,276,10.0,11.0,-999,-99.99,,,-99.99,,2013-04-26 10:03:00,
2013-04-26 02:12:00,-999.0,-99.9,30.13,WSW,237,9.0,10.0,-999,-99.99,,,-99.99,,2013-04-26 10:12:00,
2013-04-26 02:23:00,-999.0,-99.9,30.13,WSW,247,10.0,11.0,-999,-99.99,,,-99.99,,2013-04-26 10:23:00,
2013-04-26 02:33:00,-999.0,-99.9,30.12,West,264,11.0,12.0,-999,-99.99,,,-99.99,,2013-04-26 10:33:00,
2013-04-26 02:42:00,28.0,-99.9,30.12,West,271,11.0,13.0,-999,-99.99,,,-99.99,,2013-04-26 10:42:00,
2013-04-26 02:52:00,-999.0,-99.9,30.11,WSW,257,8.0,10.0,-999,-99.99,,,-99.99,,2013-04-26 10:52:00,
2013-04-26 03:02:00,-999.0,-99.9,30.11,WSW,238,7.0,9.0,-999,-99.99,,,-99.99,,2013-04-26 11:02:00,
2013-04-26 03:12:00,28.0,-99.9,30.11,SW,233,6.0,9.0,-999,-99.99,,,-99.99,,2013-04-26 11:12:00,
2013-04-26 03:22:00,-999.0,-99.9,30.11,WSW,242,8.0,9.0,-999,-99.99,,,-99.99,,2013-04-26 11:22:00,
2013-04-26 03:32:00,-999.0,-99.9,30.10,WSW,255,5.0,9.0,-999,-99.99,,,-99.99,,2013-04-26 11:32:00,
2013-04-26 03:42:00,28.0,-99.9,30.10,WSW,256,6.0,7.0,-999,-99.99,,,-99.99,,2013-04-26 11:42:00,
2013-04-26 03:52:00,-999.0,-99.9,30.09,West,265,2.0,5.0,-999,-99.99,,,-99.99,,2013-04-26 11:52:00,
2013-04-26 04:02:00,-999.0,-99.9,30.09,SE,138,2.0,3.0,-999,-99.99,,,-99.99,,2013-04-26 12:02:00,
2013-04-26 04:12:00,28.0,-99.9,30.09,SSW,210,2.0,4.0,-999,-99.99,,,-99.99,,2013-04-26 12:12:00,
2013-04-26 04:22:00,-999.0,-99.9,30.09,SW,234,4.0,6.0,-999,-99.99,,,-99.99,,2013-04-26 12:22:00,
2013-04-26 04:32:00,-999.0,-99.9,30.07,SW,231,8.0,10.0,-999,-99.99,,,-99.99,,2013-04-26 12:32:00,
2013-04-26 04:42:00,-999.0,-99.9,30.05,WSW,256,15.0,17.0,-999,-99.99,,,-99.99,,2013-04-26 12:42:00,
2013-04-26 04:52:00,-999.0,-99.9,30.05,West,275,16.0,18.0,-999,-99.99,,,-99.99,,2013-04-26 12:52:00,
2013-04-26 05:01:00,-999.0,-99.9,30.05,West,272,15.0,17.0,-999,-99.99,,,-99.99,,2013-04-26 13:01:00,
2013-04-26 05:12:00,27.0,-99.9,30.05,West,275,15.0,17.0,-999,-99.99,,,-99.99,,2013-04-26 13:12:00,
2013-04-26 05:22:00,-999.0,-99.9,30.04,West,275,14.0,15.0,-999,-99.99,,,-99.99,,2013-04-26 13:22:00,
2013-04-26 05:32:00,-999.0,-99.9,30.04,WNW,284,21.0,22.0,-999,-99.99,,,-99.99,,2013-04-26 13:32:00,
2013-04-26 05:42:00,27.0,-99.9,30.03,WNW,289,21.0,22.0,-999,-99.99,,,-99.99,,2013-04-26 13:42:00,
2013-04-26 05:52:00,-999.0,-99.9,30.03,WNW,294,19.0,21.0,-999,-99.99,,,-99.99,,2013-04-26 13:52:00,
2013-04-26 06:02:00,-999.0,-99.9,30.03,WNW,285,18.0,20.0,-999,-99.99,,,-99.99,,2013-04-26 14:02:00,
2013-04-26 06:11:00,28.0,-99.9,30.03,WNW,289,15.0,17.0,-999,-99.99,,,-99.99,,2013-04-26 14:11:00,
2013-04-26 06:22:00,-999.0,-99.9,30.03,NW,317,11.0,15.0,-999,-99.99,,,-99.99,,2013-04-26 14:22:00,
2013-04-26 06:32:00,-999.0,-99.9,30.02,WNW,294,13.0,17.0,-999,-99.99,,,-99.99,,2013-04-26 14:32:00,
2013-04-26 06:42:00,27.0,-99.9,30.02,WNW,286,10.0,12.0,-999,-99.99,,,-99.99,,2013-04-26 14:42:00,
2013-04-26 06:52:00,-999.0,-99.9,30.01,WNW,286,11.0,13.0,-999,-99.99,,,-99.99,,2013-04-26 14:52:00,
2013-04-26 07:02:00,-999.0,-99.9,30.01,SW,235,6.0,8.0,-999,-99.99,,,-99.99,,2013-04-26 15:02:00,
2013-04-26 07:12:00,-999.0,-99.9,30.00,SW,221,7.0,13.0,-999,-99.99,,,-99.99,,2013-04-26 15:12:00,
2013-04-26 07:22:00,-999.0,-99.9,30.00,West,268,5.0,10.0,-999,-99.99,,,-99.99,,2013-04-26 15:22:00,
2013-04-26 07:33:00,-999.0,-99.9,30.00,West,270,2.0,8.0,-999,-99.99,,,-99.99,,2013-04-26 15:33:00,
2013-04-26 07:43:00,29.0,-99.9,30.00,SSW,206,4.0,6.0,-999,-99.99,,,-99.99,,2013-04-26 15:43:00,
2013-04-26 07:53:00,-999.0,-99.9,29.99,SSE,162,5.0,8.0,-999,-99.99,,,-99.99,,2013-04-26 15:53:00,
2013-04-26 08:03:00,-999.0,-99.9,29.98,SW,221,9.0,12.0,-999,-99.99,,,-99.99,,2013-04-26 16:03:00,
2013-04-26 08:13:00,-999.0,-99.9,29.98,WSW,245,9.0,12.0,-999,-99.99,,,-99.99,,2013-04-26 16:13:00,
2013-04-26 08:23:00,-999.0,-99.9,29.98,SW,235,10.0,12.0,-999,-99.99,,,-99.99,,2013-04-26 16:23:00,
2013-04-26 08:33:00,-999.0,-99.9,29.98,WNW,284,12.0,13.0,-999,-99.99,,,-99.99,,2013-04-26 16:33:00,
2013-04-26 08:42:00,28.0,-99.9,29.98,WNW,289,13.0,15.0,-999,-99.99,,,-99.99,,2013-04-26 16:42:00,
2013-04-26 08:53:00,-999.0,-99.9,29.97,WNW,290,14.0,17.0,-999,-99.99,,,-99.99,,2013-04-26 16:53:00,
2013-04-26 09:02:00,-999.0,-99.9,29.97,WNW,283,14.0,19.0,-999,-99.99,,,-99.99,,2013-04-26 17:02:00,
2013-04-26 09:12:00,-999.0,-99.9,29.97,NW,322,19.0,23.0,-999,-99.99,,,-99.99,,2013-04-26 17:12:00,
2013-04-26 09:22:00,-999.0,-99.9,29.97,NNW,330,21.0,27.0,-999,-99.99,,,-99.99,,2013-04-26 17:22:00,
2013-04-26 09:32:00,-999.0,-99.9,29.97,NNW,327,18.0,22.0,-999,-99.99,,,-99.99,,2013-04-26 17:32:00,
2013-04-26 09:42:00,32.0,-99.9,29.97,NNW,333,16.0,21.0,-999,-99.99,,,-99.99,,2013-04-26 17:42:00,
2013-04-26 09:52:00,-999.0,-99.9,29.97,NNW,338,11.0,16.0,-999,-99.99,,,-99.99,,2013-04-26 17:52:00,
2013-04-26 10:02:00,-999.0,-99.9,29.96,WNW,299,14.0,16.0,-999,-99.99,,,-99.99,,2013-04-26 18:02:00,
2013-04-26 10:12:00,-999.0,-99.9,29.98,NNW,332,5.0,15.0,-999,-99.99,,,-99.99,,2013-04-26 18:12:00,
2013-04-26 10:22:00,35.0,-99.9,29.98,West,278,2.0,6.0,-999,-99.99,,,-99.99,,2013-04-26 18:22:00,
2013-04-26 10:33:00,-999.0,-99.9,29.98,WNW,296,8.0,10.0,-999,-99.99,,,-99.99,,2013-04-26 18:33:00,
2013-04-26 10:42:00,35.0,-99.9,29.98,NNW,334,10.0,13.0,-999,-99.99,,,-99.99,,2013-04-26 18:42:00,
2013-04-26 10:52:00,36.0,-99.9,29.98,North,8,11.0,13.0,-999,-99.99,,,-99.99,,2013-04-26 18:52:00,
2013-04-26 11:02:00,35.0,-99.9,29.98,North,353,12.0,15.0,-999,-99.99,,,-99.99,,2013-04-26 19:02:00,
2013-04-26 11:12:00,35.0,-99.9,29.99,North,353,13.0,15.0,-999,-99.99,,,-99.99,,2013-04-26 19:12:00,
2013-04-26 11:22:00,35.0,-99.9,29.99,North,354,11.0,15.0,-999,-99.99,,,-99.99,,2013-04-26 19:22:00,
2013-04-26 11:32:00,37.0,-99.9,30.00,North,1,10.0,13.0,-999,-99.99,,,-99.99,,2013-04-26 19:32:00,
2013-04-26 11:42:00,37.0,-99.9,30.00,North,2,8.0,10.0,-999,-99.99,,,-99.99,,2013-04-26 19:42:00,
2013-04-26 11:52:00,37.0,-99.9,30.00,North,1,9.0,12.0,-999,-99.99,,,-99.99,,2013-04-26 19:52:00,
2013-04-26 12:02:00,37.0,-99.9,30.00,North,3,9.0,12.0,-999,-99.99,,,-99.99,,2013-04-26 20:02:00,
2013-04-26 12:11:00,37.0,-99.9,30.01,North,3,11.0,15.0,-999,-99.99,,,-99.99,,2013-04-26 20:11:00,
2013-04-26 12:22:00,36.0,-99.9,30.01,North,8,22.0,29.0,-999,-99.99,,,-99.99,,2013-04-26 20:22:00,
2013-04-26 12:32:00,36.0,-99.9,30.01,North,355,19.0,26.0,-999,-99.99,,,-99.99,,2013-04-26 20:32:00,
2013-04-26 12:42:00,35.0,-99.9,30.01,North,354,27.0,32.0,-999,-99.99,,,-99.99,,2013-04-26 20:42:00,
2013-04-26 12:52:00,35.0,-99.9,30.01,North,356,21.0,28.0,-999,-99.99,,,-99.99,,2013-04-26 20:52:00,
2013-04-26 13:02:00,35.0,-99.9,30.01,North,357,22.0,28.0,-999,-99.99,,,-99.99,,2013-04-26 21:02:00,
2013-04-26 13:11:00,35.0,-99.9,30.01,North,357,21.0,27.0,-999,-99.99,,,-99.99,,2013-04-26 21:11:00,
2013-04-26 13:22:00,35.0,-99.9,30.01,North,358,17.0,21.0,-999,-99.99,,,-99.99,,2013-04-26 21:22:00,
2013-04-26 13:33:00,35.0,-99.9,30.02,North,354,16.0,20.0,-999,-99.99,,,-99.99,,2013-04-26 21:33:00,
2013-04-26 13:42:00,35.0,-99.9,30.02,North,353,14.0,19.0,-999,-99.99,,,-99.99,,2013-04-26 21:42:00,
2013-04-26 13:53:00,35.0,-99.9,30.02,North,354,17.0,20.0,-999,-99.99,,,-99.99,,2013-04-26 21:53:00,
2013-04-26 14:03:00,35.0,-99.9,30.02,NNW,347,13.0,18.0,-999,-99.99,,,-99.99,,2013-04-26 22:03:00,
2013-04-26 14:13:00,35.0,-99.9,30.01,NNW,339,11.0,13.0,-999,-99.99,,,-99.99,,2013-04-26 22:13:00,
2013-04-26 14:23:00,35.0,-99.9,30.01,NNW,331,13.0,15.0,-999,-99.99,,,-99.99,,2013-04-26 22:23:00,
2013-04-26 14:33:00,35.0,-99.9,30.01,NNW,335,21.0,23.0,-999,-99.99,,,-99.99,,2013-04-26 22:33:00,
2013-04-26 14:42:00,35.0,-99.9,30.01,NNW,336,22.0,28.0,-999,-99.99,,,-99.99,,2013-04-26 22:42:00,
2013-04-26 14:52:00,35.0,-99.9,30.01,NNW,330,19.0,23.0,-999,-99.99,,,-99.99,,2013-04-26 22:52:00,
2013-04-26 15:02:00,35.0,-99.9,30.01,NNW,331,16.0,19.0,-999,-99.99,,,-99.99,,2013-04-26 23:02:00,
2013-04-26 15:12:00,35.0,-99.9,30.00,NNW,331,15.0,19.0,-999,-99.99,,,-99.99,,2013-04-26 23:12:00,
2013-04-26 15:22:00,35.0,-99.9,30.00,NNW,332,13.0,17.0,-999,-99.99,,,-99.99,,2013-04-26 23:22:00,
2013-04-26 15:32:00,34.0,-99.9,30.00,NNW,332,18.0,21.0,-999,-99.99,,,-99.99,,2013-04-26 23:32:00,
2013-04-26 15:42:00,34.0,-99.9,29.99,NW,321,23.0,26.0,-999,-99.99,,,-99.99,,2013-04-26 23:42:00,
2013-04-26 15:52:00,33.0,-99.9,29.99,NW,318,26.0,30.0,-999,-99.99,,,-99.99,,2013-04-26 23:52:00,
2013-04-26 16:01:00,33.0,-99.9,29.99,NW,318,26.0,30.0,-999,-99.99,,,-99.99,,2013-04-27 00:01:00,
2013-04-26 16:12:00,32.0,-99.9,29.98,NW,317,27.0,31.0,-999,-99.99,,,-99.99,,2013-04-27 00:12:00,
2013-04-26 16:22:00,-999.0,-99.9,29.98,NW,317,29.0,35.0,-999,-99.99,,,-99.99,,2013-04-27 00:22:00,
2013-04-26 16:32:00,-999.0,-99.9,29.98,NW,318,34.0,38.0,-999,-99.99,,,-99.99,,2013-04-27 00:32:00,
2013-04-26 16:42:00,-999.0,-99.9,29.98,NW,317,35.0,40.0,-999,-99.99,,,-99.99,,2013-04-27 00:42:00,
2013-04-26 16:52:00,31.0,-99.9,29.98,NW,316,32.0,39.0,-999,-99.99,,,-99.99,,2013-04-27 00:52:00,
2013-04-26 17:01:00,-999.0,-99.9,29.98,NW,317,26.0,31.0,-999,-99.99,,,-99.99,,2013-04-27 01:01:00,
2013-04-26 17:12:00,30.0,-99.9,29.98,NW,315,30.0,34.0,-999,-99.99,,,-99.99,,2013-04-27 01:12:00,
2013-04-26 17:21:00,-999.0,-99.9,29.99,NW,317,28.0,33.0,-999,-99.99,,,-99.99,,2013-04-27 01:21:00,
2013-04-26 17:32:00,-999.0,-99.9,29.99,NW,310,24.0,27.0,-999,-99.99,,,-99.99,,2013-04-27 01:32:00,
2013-04-26 17:42:00,-999.0,-99.9,29.99,NW,308,23.0,27.0,-999,-99.99,,,-99.99,,2013-04-27 01:42:00,
2013-04-26 17:52:00,29.0,-99.9,29.99,NW,309,22.0,25.0,-999,-99.99,,,-99.99,,2013-04-27 01:52:00,
2013-04-26 18:02:00,-999.0,-99.9,29.99,NW,309,23.0,27.0,-999,-99.99,,,-99.99,,2013-04-27 02:02:00,
2013-04-26 18:11:00,29.0,-99.9,29.99,NW,316,23.0,28.0,-999,-99.99,,,-99.99,,2013-04-27 02:11:00,
2013-04-26 18:22:00,-999.0,-99.9,30.00,NW,315,26.0,30.0,-999,-99.99,,,-99.99,,2013-04-27 02:22:00,
2013-04-26 18:32:00,-999.0,-99.9,30.00,NW,311,26.0,32.0,-999,-99.99,,,-99.99,,2013-04-27 02:32:00,
2013-04-26 18:42:00,28.0,-99.9,29.99,NW,313,26.0,32.0,-999,-99.99,,,-99.99,,2013-04-27 02:42:00,
2013-04-26 18:52:00,-999.0,-99.9,30.00,NW,316,28.0,33.0,-999,-99.99,,,-99.99,,2013-04-27 02:52:00,
2013-04-26 19:02:00,-999.0,-99.9,30.00,NNW,329,27.0,32.0,-999,-99.99,,,-99.99,,2013-04-27 03:02:00,
2013-04-26 19:11:00,27.0,-99.9,30.00,NW,322,27.0,32.0,-999,-99.99,,,-99.99,,2013-04-27 03:11:00,
2013-04-26 19:22:00,-999.0,-99.9,30.01,NNW,329,21.0,29.0,-999,-99.99,,,-99.99,,2013-04-27 03:22:00,
2013-04-26 19:33:00,-999.0,-99.9,30.01,NW,323,21.0,28.0,-999,-99.99,,,-99.99,,2013-04-27 03:33:00,
2013-04-26 19:43:00,26.0,-99.9,30.01,NW,324,23.0,28.0,-999,-99.99,,,-99.99,,2013-04-27 03:43:00,
2013-04-26 19:53:00,-999.0,-99.9,30.00,NW,323,23.0,27.0,-999,-99.99,,,-99.99,,2013-04-27 03:53:00,
2013-04-26 20:03:00,-999.0,-99.9,29.97,NW,314,32.0,37.0,-999,-99.99,,,-99.99,,2013-04-27 04:03:00,
2013-04-26 20:13:00,25.0,-99.9,29.97,NW,318,30.0,36.0,-999,-99.99,,,-99.99,,2013-04-27 04:13:00,
2013-04-26 20:23:00,-999.0,-99.9,29.98,NW,319,29.0,35.0,-999,-99.99,,,-99.99,,2013-04-27 04:23:00,
2013-04-26 20:33:00,-999.0,-99.9,29.99,NNW,327,25.0,28.0,-999,-99.99,,,-99.99,,2013-04-27 04:33:00,
2013-04-26 20:43:00,25.0,-99.9,30.01,NNW,331,20.0,28.0,-999,-99.99,,,-99.99,,2013-04-27 04:43:00,
2013-04-26 20:53:00,-999.0,-99.9,30.03,NNW,341,21.0,27.0,-999,-99.99,,,-99.99,,2013-04-27 04:53:00,
2013-04-26 21:02:00,-999.0,-99.9,30.04,North,2,15.0,19.0,-999,-99.99,,,-99.99,,2013-04-27 05:02:00,
2013-04-26 21:12:00,-999.0,-99.9,30.04,North,2,15.0,18.0,-999,-99.99,,,-99.99,,2013-04-27 05:12:00,
2013-04-26 21:22:00,-999.0,-99.9,30.03,NNW,345,15.0,18.0,-999,-99.99,,,-99.99,,2013-04-27 05:22:00,
2013-04-26 21:32:00,-999.0,-99.9,30.04,North,-999,13.0,16.0,-999,-99.99,,,-99.99,,2013-04-27 05:32:00,
2013-04-26 21:42:00,25.0,-99.9,30.04,North,360,14.0,16.0,-999,-99.99,,,-99.99,,2013-04-27 05:42:00,
2013-04-26 21:52:00,-999.0,-99.9,30.04,NNW,346,12.0,15.0,-999,-99.99,,,-99.99,,2013-04-27 05:52:00,
2013-04-26 22:02:00,-999.0,-99.9,30.04,NNW,347,21.0,24.0,-999,-99.99,,,-99.99,,2013-04-27 06:02:00,
2013-04-26 22:12:00,23.0,-99.9,30.04,North,351,22.0,28.0,-999,-99.99,,,-99.99,,2013-04-27 06:12:00,
2013-04-26 22:22:00,-999.0,-99.9,30.04,North,351,17.0,20.0,-999,-99.99,,,-99.99,,2013-04-27 06:22:00,
2013-04-26 22:32:00,-999.0,-99.9,30.05,North,350,18.0,22.0,-999,-99.99,,,-99.99,,2013-04-27 06:32:00,
2013-04-26 22:42:00,23.0,-99.9,30.06,North,357,16.0,20.0,-999,-99.99,,,-99.99,,2013-04-27 06:42:00,
2013-04-26 22:52:00,-999.0,-99.9,30.06,North,349,13.0,17.0,-999,-99.99,,,-99.99,,2013-04-27 06:52:00,
2013-04-26 23:02:00,-999.0,-99.9,30.06,NNW,328,17.0,20.0,-999,-99.99,,,-99.99,,2013-04-27 07:02:00,
2013-04-26 23:11:00,22.0,-99.9,30.07,NNW,328,21.0,25.0,-999,-99.99,,,-99.99,,2013-04-27 07:11:00,
2013-04-26 23:22:00,-999.0,-99.9,30.07,NNW,329,18.0,22.0,-999,-99.99,,,-99.99,,2013-04-27 07:22:00,
2013-04-26 23:32:00,-999.0,-99.9,30.07,NNW,341,16.0,19.0,-999,-99.99,,,-99.99,,2013-04-27 07:32:00,
2013-04-26 23:42:00,-999.0,-99.9,30.09,NNW,347,10.0,14.0,-999,-99.99,,,-99.99,,2013-04-27 07:42:00,
2013-04-26 23:52:00,22.0,-99.9,30.09,NNW,337,14.0,16.0,-999,-99.99,,,-99.99,,2013-04-27 07:52:00,